Weather Service Report


947 
ASUS41 KCTP 290410
RWRCTP

REGIONAL WEATHER ROUNDUP
NATIONAL WEATHER SERVICE STATE COLLEGE PA
1100 PM EST WED JAN 28 2015

Note: "fair" indicates few or no clouds below 12,000 feet with no 
significant weather and/or obstructions to visibility.

* = STATION THAT DOES NOT REPORT PRECIPITATION /E.G. RAIN...SNOW...ETC/
    THUNDER OR FOG.

PAZ002>004-007>009-013>016-020>023-029>032-290500-
WESTERN PENNSYLVANIA
  
CITY           SKY/WX    TMP DP  RH WIND       PRES   REMARKS
ERIE           MOCLDY    20   2  45 CALM      30.26F                  
MEADVILLE      MOCLDY    19   3  49 VRB5      30.22F WCI  12          
FRANKLIN*      MOCLDY    16   3  57 S8        30.24F WCI   5          
NEW CASTLE     FAIR      18   8  64 SE6       30.27F WCI  10          
BEAVER COUNTY  NOT AVBL                                               
BUTLER*        PTCLDY    12   5  73 CALM      30.27F                  
PITTSBURGH INT MOCLDY    16  10  77 S5        30.26F WCI   9          
PITTSBURGH     PTCLDY    16   9  74 SE5       30.25F WCI   9          
INDIANA*       CLEAR      5   1  85 E5        30.31F WCI  -4          
LATROBE        PTCLDY     9   7  92 CALM      30.30F                  
WASHINGTON CO* PTCLDY     9   3  78 CALM      30.27F                  
$$

PAZ004>006-010>012-017>019-024>028-033>037-041-042-045-046-049>053-290500-
CENTRAL PENNSYLVANIA
  
CITY           SKY/WX    TMP DP  RH WIND       PRES   REMARKS
BRADFORD       PTCLDY     3  -4  72 CALM      30.19F                  
DUBOIS         PTCLDY    14   3  61 CALM      30.22F                  
CLEARFIELD     PTCLDY    11   5  77 CALM      30.26F                  
JOHNSTOWN      PTCLDY    11   5  77 S6        30.20F WCI   1          
ALTOONA        PTCLDY    12   4  70 S3        30.27F                  
STATE COLLEGE  PTCLDY    12   4  67 CALM      30.27F                  
WILLIAMSPORT   CLEAR     14   4  64 CALM      30.32S                  
SELINSGROVE    PTCLDY     7   0  73 CALM      30.32R                  
FT INDIANTOWN  CLEAR     19   2  47 CALM      30.30R                  
CAPITAL CITY   CLEAR     23   7  50 SW5       30.32S                  
HARRISBURG     PTCLDY    20   6  55 NW7       30.31S WCI  11          
YORK           PTCLDY    11   1  64 NW6       30.30S WCI   1          
$$

PAZ038>040-043-044-047-048-054-055-060>062-067>071-290500-
EASTERN PENNSYLVANIA
  
CITY           SKY/WX    TMP DP  RH WIND       PRES   REMARKS
SCRANTON       PTCLDY    13   4  67 CALM      30.28R                  
MOUNT POCONO   CLEAR     14   3  61 NW14      30.16F WCI  -1          
ALLENTOWN      CLEAR     23   1  38 NW5       30.29R                  
QUAKERTOWN*    CLEAR     19   1  45 N5        30.29R WCI  13          
READING        CLEAR     23   2  40 NW7       30.30R WCI  15          
LANCASTER      CLEAR     18   4  54 W6        30.30R WCI  10          
COATESVILLE    CLEAR     23   7  50 NW6       30.28R                  
POTTSTOWN      CLEAR     16   2  54 CALM      30.31R                  
BLUE BELL      CLEAR     27   3  36 CALM      30.28S                  
DOYLESTOWN     CLEAR     21   2  43 CALM      30.27R                  
WILLOW GROVE   NOT AVBL                                               
NORTH PHILA    CLEAR     27   1  32 NW12      30.31R                  
PHILADELPHIA   CLEAR     29   2  31 N7        30.31R                  
$$

Return to Home page


Western Regional Climate Center, wrcc@dri.edu